Showing default

TJS-3, 43874

Orbit data source: Space-Track

TJS-3, 43874 is a payload satellite owned by CASC (CN) in GEO that was launched on Mon, 24 Dec 2018 UTC via a CHANG ZHENG 3C launch vehicle from the Xichang Space Center, China (XSC). Payload-class satellites include a variety of spacecraft equipped with specific instruments for various scientific and technological missions. These include communications satellites like Starlink; space stations such as the ISS; scientific satellites like the Hubble; Earth observation satellites from companies like Planet Labs, Umbra, and HawkEye 360; GPS; miniature CubeSats for education and research; and military/defense satellites.

Not visible in the next 10 days
Identifier
43874, 2018-110A
Orbit
GEO
Country
Flag of CNCN / PRC
Related business
Manufacturer
CAST
Mission
Operational Defense Technology
Bus & Motor
TJS-3, Unknown motor
Mass
~2,700 kg wet, ~2,200 kg dry
Launch date (UTC)
2018-12-24 (7 years ago)
Launch vehicle
CHANG ZHENG 3C
Launch site
Xichang Space Center, China (XSC)
Object type
Payload
Rocket body
Debris
Shape & HBR
Box + 2 Pan, 10.0 m
Radar Cross Section
27.363 m², Large (>1 m²)

Expand to show TLE details & history
Last TLE update: 6 days ago

TLE from 6 days ago
0 TJS-3
1 43874U 18110A   26154.66762008 -.00000204  00000-0  00000+0 0  9996
2 43874   2.5099  80.6531 0001866  66.8699 133.1554  1.00274849 27287
Epoch: 2026-06-03T16:01Z
TLE epoch observation values (Epoch: 2026-06-03T16:01:22.374Z)
Latitude
-0.88151°
Longitude
148.20969°
Altitude
35,790.725 km
Speed
3.074 km/s
True Right ascension
18h 42m 42s
True Declination
0° 52' 50"
Sunlit
Object was in daylight at epoch
Visualization orbit readout
Latitude
Unknown
Longitude
Unknown
Altitude
Unknown
Speed
Unknown
Apparent Right ascension
Unknown
Apparent Declination
Unknown
Sunlit
N/A
Visualization observer readout
Local Sidereal Time
13:03:43
Azimuth
Unknown
Elevation
Unknown
Doppler factor
Unknown
Orbital elements
Apogee altitude
35,794.671 km
Perigee altitude
35,778.935 km
Semi-major axis
42,164.94 km
Eccentricity
0.00019
Inclination
2.5099°
RAAN
80.6531°
Arg. of periapsis
66.8699°
True anomaly
133.171°
Mean anomaly
133.1554°
Eccentric anomaly
133.1632°
Mean motion
0.25068 °/min
Orbital period
1,436.11 mins
BSTAR
0
Loading maneuver chart data...
Computing Atmospheric mass density...
Loading historical data...
Loading historical data...
Loading historical data...
Loading historical data...
Loading historical data...
Loading historical data...
Loading historical data...
Other satellites on launch #110 in the year 2018 (2018-12-24 UTC)

Documentation

Showing up to 5 results
|